Date String (YYYY-MM-DD hh:mm:ss) UTC,Instrument flags,Ambient pressure (hPa),Sample flow (lpm),Bypass flow (lpm),Sample temperature (°C),Ambient temperature (°C),ASC tube jacket temperature (°C),LED temperature (°C),Box temperature (°C),Sample RH (%),Span deviation,Mass concentration (μg/m³),Mass concentration (μg/m³),Mass concentration (μg/m³)
DateTimeUTC,F1_M11,P_M11,Q1_M11,Q2_M11,T1_M11,T2_M11,T3_M11,T4_M11,T5_M11,U1_M11,ZSPAN_M11,X0_M11,X2_M11,X1_M11
2021-12-27 13:00:00,,0816.9,4.99,0.00,22.2,21.9,00.0,31.1,23.9,10.0,0000.0,0008.81,0002.37,0001.20
2021-12-27 13:01:00,,0816.8,5.01,0.00,22.2,21.8,00.0,31.1,23.9,10.0,0000.0,0008.83,0002.36,0001.17
2021-12-27 13:02:00,,0816.8,4.99,0.00,22.2,21.7,00.0,31.1,23.9,10.1,0000.0,0008.29,0002.32,0001.16
2021-12-27 13:03:00,,0816.9,5.01,0.00,22.2,21.6,00.0,31.1,23.8,10.1,0000.0,0008.40,0002.27,0001.13
2021-12-27 13:04:00,,0816.9,5.00,0.00,22.1,21.5,00.0,31.1,23.8,10.0,0000.0,0008.55,0002.30,0001.14
2021-12-27 13:05:00,,0816.9,4.99,0.00,22.1,21.5,00.0,31.1,23.7,10.0,0000.0,0008.51,0002.30,0001.13
2021-12-27 13:06:00,,0816.8,5.01,0.00,22.1,21.4,00.0,31.1,23.7,10.1,0000.0,0008.57,0002.31,0001.12
2021-12-27 13:07:00,,0816.9,5.00,0.00,22.1,21.4,00.0,31.1,23.6,10.1,0000.0,0008.46,0002.28,0001.12
2021-12-27 13:08:00,,0816.8,5.00,0.00,22.0,21.3,00.0,31.1,23.6,10.1,0000.0,0007.46,0002.18,0001.11
2021-12-27 13:09:00,,0816.9,4.99,0.00,22.0,21.3,00.0,31.1,23.6,10.1,0000.0,0007.34,0002.13,0001.10
2021-12-27 13:10:00,,0817.0,5.00,0.00,22.0,21.3,00.0,31.0,23.6,10.1,0000.0,0007.50,0002.17,0001.11
2021-12-27 13:11:00,,0816.8,4.99,0.00,22.0,21.3,00.0,31.0,23.5,10.2,0000.0,0007.59,0002.16,0001.09
2021-12-27 13:12:00,,0816.8,5.00,0.00,21.9,21.2,00.0,31.0,23.5,10.2,0000.0,0007.50,0002.11,0001.08
2021-12-27 13:13:00,,0816.9,5.00,0.00,21.9,21.4,00.0,31.0,23.5,10.2,0000.0,0007.68,0002.08,0001.08
2021-12-27 13:14:00,,0816.9,5.00,0.00,22.0,22.1,00.0,31.0,23.8,10.1,0000.0,0007.74,0002.09,0001.09
2021-12-27 13:15:00,,0816.9,5.01,0.00,22.2,22.8,00.0,31.1,24.1,10.1,0000.0,0007.54,0002.04,0001.08
2021-12-27 13:16:00,,0817.1,5.00,0.00,22.3,22.9,00.0,31.1,24.1,10.0,0000.0,0007.01,0001.98,0001.07
2021-12-27 13:17:00,,0816.7,4.99,0.00,22.3,22.6,00.0,31.1,24.1,10.0,0000.0,0007.48,0001.94,0001.06
2021-12-27 13:18:00,,0816.7,5.01,0.00,22.3,22.4,00.0,31.1,24.0,10.0,0000.0,0006.97,0001.92,0001.07
2021-12-27 13:19:00,,0817.0,4.99,0.00,22.2,22.1,00.0,31.1,23.9,10.0,0000.0,0006.64,0001.87,0001.07
2021-12-27 13:20:00,,0817.1,5.01,0.00,22.2,21.9,00.0,31.1,23.8,10.0,0000.0,0006.69,0001.89,0001.07
2021-12-27 13:21:00,,0816.9,4.99,0.00,22.1,21.8,00.0,31.1,23.8,10.0,0000.0,0007.13,0001.85,0001.05
2021-12-27 13:22:00,,0816.9,5.01,0.00,22.1,21.7,00.0,31.1,23.7,10.0,0000.0,0007.10,0001.94,0001.06
2021-12-27 13:23:00,,0816.9,5.00,0.00,22.1,21.6,00.0,31.1,23.7,10.0,0000.0,0007.15,0001.99,0001.08
2021-12-27 13:24:00,,0816.8,4.99,0.00,22.1,21.5,00.0,31.1,23.7,09.8,0000.0,0006.94,0002.12,0001.11
2021-12-27 13:25:00,,0816.8,5.00,0.00,22.1,21.5,00.0,31.1,23.7,09.8,0000.0,0007.10,0002.20,0001.10
2021-12-27 13:26:00,,0816.8,5.00,0.00,22.1,21.4,00.0,31.1,23.7,09.9,0000.0,0007.32,0002.21,0001.12
2021-12-27 13:27:00,,0816.8,4.99,0.00,22.0,21.4,00.0,31.1,23.6,09.9,0000.0,0007.39,0002.26,0001.14
2021-12-27 13:28:00,,0816.8,5.00,0.00,22.0,21.4,00.0,31.1,23.6,10.0,0000.0,0006.88,0002.28,0001.14
2021-12-27 13:29:00,,0816.8,5.00,0.00,22.0,21.3,00.0,31.1,23.6,10.0,0000.0,0006.82,0002.32,0001.15
2021-12-27 13:30:00,,0816.8,5.00,0.00,22.0,21.3,00.0,31.0,23.6,10.0,0000.0,0006.92,0002.37,0001.17
2021-12-27 13:31:00,,0816.8,4.99,0.00,22.0,21.3,00.0,31.0,23.5,10.1,0000.0,0006.97,0002.39,0001.17
2021-12-27 13:32:00,,0816.7,5.01,0.00,22.0,21.3,00.0,31.0,23.5,10.1,0000.0,0006.58,0002.47,0001.19
2021-12-27 13:33:00,,0816.7,5.00,0.00,22.0,21.3,00.0,31.0,23.5,10.1,0000.0,0006.34,0002.42,0001.19
2021-12-27 13:34:00,,0816.8,5.00,0.00,22.0,21.9,00.0,31.1,23.8,10.1,0000.0,0006.31,0002.38,0001.18
2021-12-27 13:35:00,,0816.7,5.00,0.00,22.2,22.7,00.0,31.1,24.0,10.1,0000.0,0006.29,0002.28,0001.15
2021-12-27 13:36:00,,0816.9,5.00,0.00,22.3,23.1,00.0,31.1,24.2,10.1,0000.0,0007.37,0002.17,0001.12
2021-12-27 13:37:00,,0816.9,5.00,0.00,22.4,22.8,00.0,31.2,24.2,10.1,0000.0,0006.50,0002.16,0001.09
2021-12-27 13:38:00,,0816.9,5.00,0.00,22.4,22.6,00.0,31.2,24.2,10.1,0000.0,0006.53,0002.07,0001.07
2021-12-27 13:39:00,,0816.9,5.00,0.00,22.4,22.4,00.0,31.2,24.1,10.0,0000.0,0007.11,0002.01,0001.07
2021-12-27 13:40:00,,0816.9,5.01,0.00,22.3,22.2,00.0,31.2,24.0,10.0,0000.0,0007.62,0001.93,0001.05
2021-12-27 13:41:00,,0816.8,4.99,0.00,22.3,22.1,00.0,31.2,24.0,10.0,0000.0,0007.65,0001.91,0001.02
2021-12-27 13:42:00,,0816.8,5.00,0.00,22.3,22.0,00.0,31.2,24.0,10.1,0000.0,0007.70,0001.92,0001.00
2021-12-27 13:43:00,,0816.8,5.00,0.00,22.3,21.8,00.0,31.2,23.9,10.1,0000.0,0007.62,0001.81,0000.98
2021-12-27 13:44:00,,0816.8,4.99,0.00,22.3,21.8,00.0,31.2,23.9,10.2,0000.0,0007.54,0001.81,0000.97
2021-12-27 13:45:00,,0816.8,5.01,0.00,22.2,21.7,00.0,31.2,23.9,10.1,0000.0,0007.41,0001.76,0000.97
2021-12-27 13:46:00,,0816.9,5.00,0.00,22.2,21.6,00.0,31.2,23.9,10.2,0000.0,0007.51,0001.75,0000.98
2021-12-27 13:47:00,,0816.8,5.00,0.00,22.2,21.6,00.0,31.2,23.8,10.2,0000.0,0006.51,0001.76,0000.98
2021-12-27 13:48:00,,0816.8,5.01,0.00,22.2,21.5,00.0,31.2,23.8,10.2,0000.0,0006.22,0001.75,0000.98
2021-12-27 13:49:00,,0816.8,4.99,0.00,22.2,21.5,00.0,31.2,23.8,10.3,0000.0,0006.08,0001.80,0000.98
2021-12-27 13:50:00,,0816.8,5.01,0.00,22.1,21.4,00.0,31.2,23.7,10.3,0000.0,0005.13,0001.80,0000.96
2021-12-27 13:51:00,,0816.9,5.00,0.00,22.1,21.4,00.0,31.2,23.7,10.3,0000.0,0004.36,0001.78,0000.95
2021-12-27 13:52:00,,0816.9,4.99,0.00,22.1,21.4,00.0,31.2,23.7,10.3,0000.0,0004.28,0001.75,0000.94
2021-12-27 13:53:00,,0816.9,5.00,0.00,22.1,21.4,00.0,31.1,23.7,10.4,0000.0,0004.66,0001.69,0000.93
2021-12-27 13:54:00,,0816.9,5.01,0.00,22.1,21.8,00.0,31.2,23.8,10.4,0000.0,0005.15,0001.71,0000.93
2021-12-27 13:55:00,,0816.9,5.00,0.00,22.2,22.6,00.0,31.2,24.1,10.4,0000.0,0005.62,0001.69,0000.91
2021-12-27 13:56:00,,0816.8,4.99,0.00,22.4,23.2,00.0,31.2,24.3,10.3,0000.0,0006.24,0001.65,0000.88
2021-12-27 13:57:00,,0817.0,5.00,0.00,22.5,23.0,00.0,31.3,24.4,10.3,0000.0,0005.94,0001.65,0000.86
2021-12-27 13:58:00,,0817.4,5.00,0.00,22.5,22.8,00.0,31.3,24.3,10.3,0000.0,0005.93,0001.60,0000.84
2021-12-27 13:59:00,,0817.1,5.01,0.00,22.5,22.6,00.0,31.3,24.3,10.3,0000.0,0005.97,0001.56,0000.83
